When you browse on this site, cookies collect data to enhance your experience and personalize the content and advertising you see.
Visit our Privacy Policy to learn more. By continuing to use the site, you agree to this use of cookies and data.
  • En España
  • Lista de países
  • Para 7 días
  • Temperatura del agua
  • Mapa Satelital
  • El tiempo en el mapa
  • Informadores
  • user-avatar
    Iniciar sesión

    Tiempo cada hora Shmygalovka

    Hoy, 20 Enero, Domingo

    Tiempo Temperatura Precipitaciones Viento Presión Humedad
    00:00 -11°C° 0 mm 4 mps 745 mmHg 93%
    01:00 -11°C° 0 mm 4 mps 745 mmHg 93%
    02:00 -9°C° 0 mm 3 mps 745 mmHg 94%
    03:00 -11°C° 0 mm 4 mps 745 mmHg 94%
    04:00 -11°C° 0 mm 4 mps 745 mmHg 95%
    05:00 -12°C° 0 mm 5 mps 745 mmHg 96%
    06:00 -12°C° 0 mm 5 mps 745 mmHg 95%
    07:00 -12°C° 0 mm 5 mps 745 mmHg 95%
    08:00 -12°C° 0 mm 5 mps 745 mmHg 94%
    09:00 -12°C° 0 mm 5 mps 745 mmHg 92%
    10:00 -12°C° 0 mm 6 mps 745 mmHg 91%
    11:00 -11°C° 0 mm 6 mps 744 mmHg 89%
    12:00 -12°C° 0 mm 7 mps 744 mmHg 88%
    13:00 -11°C° 0 mm 7 mps 744 mmHg 87%
    14:00 -11°C° 0 mm 8 mps 743 mmHg 86%
    15:00 -11°C° 0 mm 7 mps 743 mmHg 86%
    16:00 -11°C° 0 mm 7 mps 743 mmHg 87%
    17:00 -12°C° 0 mm 7 mps 743 mmHg 87%
    18:00 -12°C° 0.1 mm 7 mps 743 mmHg 87%
    19:00 -10°C° 0.1 mm 6 mps 742 mmHg 88%
    20:00 -10°C° 0.1 mm 6 mps 742 mmHg 88%
    21:00 -11°C° 0 mm 6 mps 742 mmHg 88%
    22:00 -11°C° 0 mm 6 mps 742 mmHg 89%
    23:00 -12°C° 0 mm 6 mps 741 mmHg 90%

    Mañana, 21 Enero, Lunes

    Tiempo Temperatura Precipitaciones Viento Presión Humedad
    00:00 -12°C° 0.1 mm 6 mps 741 mmHg 91%
    01:00 -12°C° 0.1 mm 6 mps 741 mmHg 92%
    02:00 -14°C° 0.1 mm 6 mps 741 mmHg 93%
    03:00 -13°C° 0.2 mm 5 mps 741 mmHg 93%
    04:00 -14°C° 0.2 mm 5 mps 740 mmHg 94%
    05:00 -14°C° 0.2 mm 5 mps 740 mmHg 94%
    06:00 -14°C° 0.2 mm 4 mps 740 mmHg 94%
    07:00 -14°C° 0.2 mm 4 mps 740 mmHg 95%
    08:00 -14°C° 0.2 mm 4 mps 740 mmHg 95%
    09:00 -12°C° 0.1 mm 4 mps 740 mmHg 95%
    10:00 -12°C° 0.1 mm 3 mps 739 mmHg 94%
    11:00 -10°C° 0.1 mm 3 mps 739 mmHg 94%
    12:00 -10°C° 0 mm 4 mps 740 mmHg 92%
    13:00 -10°C° 0 mm 4 mps 740 mmHg 89%
    14:00 -10°C° 0 mm 5 mps 740 mmHg 87%
    15:00 -11°C° 0 mm 4 mps 740 mmHg 88%
    16:00 -12°C° 0 mm 4 mps 740 mmHg 88%
    17:00 -15°C° 0 mm 4 mps 741 mmHg 89%
    18:00 -16°C° 0 mm 4 mps 741 mmHg 90%
    19:00 -17°C° 0 mm 4 mps 741 mmHg 91%
    20:00 -18°C° 0 mm 4 mps 742 mmHg 92%
    21:00 -19°C° 0 mm 4 mps 742 mmHg 94%
    22:00 -19°C° 0 mm 3 mps 743 mmHg 95%
    23:00 -19°C° 0 mm 3 mps 743 mmHg 97%

    Pasado mañana, 22 Enero, Martes

    Tiempo Temperatura Precipitaciones Viento Presión Humedad
    00:00 -21°C° 0 mm 3 mps 743 mmHg 97%
    01:00 -22°C° 0 mm 3 mps 744 mmHg 98%
    02:00 -22°C° 0 mm 3 mps 744 mmHg 98%
    03:00 -23°C° 0 mm 3 mps 744 mmHg 98%
    04:00 -23°C° 0 mm 3 mps 744 mmHg 99%
    05:00 -23°C° 0 mm 3 mps 745 mmHg 99%
    06:00 -23°C° 0 mm 3 mps 745 mmHg 99%
    07:00 -24°C° 0 mm 3 mps 745 mmHg 99%
    08:00 -24°C° 0 mm 3 mps 745 mmHg 99%
    09:00 -23°C° 0 mm 3 mps 746 mmHg 98%
    10:00 -21°C° 0 mm 3 mps 746 mmHg 96%
    11:00 -18°C° 0 mm 2 mps 746 mmHg 95%
    12:00 -17°C° 0 mm 2 mps 746 mmHg 95%
    13:00 -16°C° 0 mm 2 mps 746 mmHg 95%
    14:00 -14°C° 0 mm 1 mps 747 mmHg 95%
    15:00 -16°C° 0 mm 2 mps 747 mmHg 96%
    16:00 -17°C° 0 mm 2 mps 747 mmHg 97%
    17:00 -18°C° 0 mm 2 mps 747 mmHg 98%
    18:00 -17°C° 0 mm 2 mps 747 mmHg 98%
    19:00 -17°C° 0 mm 2 mps 747 mmHg 97%
    20:00 -17°C° 0 mm 2 mps 747 mmHg 97%
    21:00 -16°C° 0 mm 2 mps 747 mmHg 97%
    22:00 -16°C° 0 mm 2 mps 747 mmHg 96%
    23:00 -16°C° 0 mm 2 mps 747 mmHg 96%

    23 Enero, Miércoles

    Tiempo Temperatura Precipitaciones Viento Presión Humedad
    00:00 -16°C° 0 mm 2 mps 747 mmHg 96%
    01:00 -15°C° 0 mm 2 mps 747 mmHg 96%
    02:00 -15°C° 0 mm 2 mps 747 mmHg 97%
    03:00 -15°C° 0 mm 2 mps 747 mmHg 97%
    04:00 -15°C° 0 mm 2 mps 747 mmHg 97%
    05:00 -15°C° 0 mm 2 mps 747 mmHg 97%
    06:00 -15°C° 0 mm 2 mps 747 mmHg 97%
    07:00 -15°C° 0 mm 2 mps 748 mmHg 97%
    08:00 -16°C° 0 mm 2 mps 748 mmHg 97%
    09:00 -16°C° 0 mm 3 mps 748 mmHg 96%
    10:00 -14°C° 0 mm 3 mps 749 mmHg 95%
    11:00 -13°C° 0 mm 3 mps 749 mmHg 94%
    12:00 -13°C° 0 mm 3 mps 749 mmHg 94%
    13:00 -13°C° 0 mm 3 mps 749 mmHg 93%
    14:00 -12°C° 0 mm 3 mps 749 mmHg 93%
    15:00 -14°C° 0 mm 3 mps 749 mmHg 93%
    16:00 -15°C° 0 mm 3 mps 749 mmHg 94%
    17:00 -17°C° 0 mm 3 mps 749 mmHg 94%
    18:00 -18°C° 0 mm 3 mps 749 mmHg 92%
    19:00 -18°C° 0 mm 3 mps 749 mmHg 90%
    20:00 -19°C° 0 mm 3 mps 749 mmHg 88%
    21:00 -19°C° 0 mm 3 mps 749 mmHg 86%
    22:00 -21°C° 0 mm 3 mps 750 mmHg 85%
    23:00 -21°C° 0 mm 3 mps 750 mmHg 83%

    24 Enero, Jueves

    Tiempo Temperatura Precipitaciones Viento Presión Humedad
    00:00 -21°C° 0 mm 3 mps 750 mmHg 81%
    01:00 -22°C° 0 mm 3 mps 750 mmHg 80%
    02:00 -22°C° 0 mm 3 mps 750 mmHg 78%
    03:00 -22°C° 0 mm 3 mps 750 mmHg 78%
    04:00 -22°C° 0 mm 3 mps 750 mmHg 77%
    05:00 -23°C° 0 mm 3 mps 749 mmHg 77%
    06:00 -23°C° 0 mm 3 mps 749 mmHg 77%
    07:00 -23°C° 0 mm 3 mps 750 mmHg 77%
    08:00 -23°C° 0 mm 3 mps 750 mmHg 78%
    09:00 -21°C° 0 mm 3 mps 750 mmHg 80%
    10:00 -18°C° 0 mm 3 mps 749 mmHg 83%
    11:00 -17°C° 0 mm 3 mps 749 mmHg 86%
    12:00 -16°C° 0 mm 3 mps 749 mmHg 88%
    13:00 -15°C° 0 mm 2 mps 749 mmHg 90%
    14:00 -15°C° 0 mm 2 mps 748 mmHg 92%
    15:00 -16°C° 0 mm 2 mps 748 mmHg 93%
    16:00 -17°C° 0 mm 2 mps 748 mmHg 95%
    17:00 -19°C° 0 mm 3 mps 748 mmHg 96%
    18:00 -18°C° 0 mm 3 mps 748 mmHg 96%
    19:00 -17°C° 0 mm 2 mps 748 mmHg 97%
    20:00 -16°C° 0 mm 2 mps 748 mmHg 97%
    21:00 -15°C° 0 mm 2 mps 747 mmHg 97%
    22:00 -16°C° 0 mm 3 mps 747 mmHg 97%
    23:00 -15°C° 0 mm 3 mps 747 mmHg 97%

    25 Enero, Viernes

    Tiempo Temperatura Precipitaciones Viento Presión Humedad
    00:00 -14°C° 0 mm 3 mps 747 mmHg 97%
    01:00 -14°C° 0 mm 3 mps 746 mmHg 96%
    02:00 -15°C° 0 mm 4 mps 746 mmHg 96%
    03:00 -14°C° 0 mm 4 mps 746 mmHg 96%
    04:00 -14°C° 0 mm 4 mps 745 mmHg 96%
    05:00 -14°C° 0 mm 4 mps 745 mmHg 96%
    06:00 -14°C° 0.3 mm 4 mps 745 mmHg 96%
    07:00 -14°C° 0.3 mm 5 mps 745 mmHg 95%
    08:00 -14°C° 0.3 mm 5 mps 745 mmHg 95%
    09:00 -14°C° 0.3 mm 5 mps 744 mmHg 95%
    10:00 -14°C° 0.3 mm 5 mps 744 mmHg 95%
    11:00 -13°C° 0.3 mm 5 mps 744 mmHg 95%
    12:00 -13°C° 0.1 mm 5 mps 743 mmHg 95%
    13:00 -12°C° 0.1 mm 4 mps 743 mmHg 94%
    14:00 -12°C° 0.1 mm 4 mps 743 mmHg 94%
    15:00 -12°C° 0.1 mm 4 mps 742 mmHg 94%
    16:00 -12°C° 0.1 mm 4 mps 742 mmHg 94%
    17:00 -12°C° 0.1 mm 4 mps 742 mmHg 95%
    18:00 -12°C° 0.1 mm 4 mps 742 mmHg 95%
    19:00 -12°C° 0.1 mm 4 mps 741 mmHg 95%
    20:00 -11°C° 0.1 mm 4 mps 741 mmHg 95%
    21:00 -11°C° 0.1 mm 4 mps 741 mmHg 95%
    22:00 -10°C° 0.1 mm 3 mps 740 mmHg 95%
    23:00 -10°C° 0.1 mm 3 mps 740 mmHg 96%
    Mostrar más